Regional Weather Roundup
Issued by NWS State College, PA

Home | Current Version | Previous Version | Graphics & Text | Print | Product List | Glossary Off
Versions: 1 2 3 4 5 6 7 8 9 10 11 12 13 14 15 16 17 18 19 20 21 22 23 24 25 26 27 28 29 30 31 32 33 34 35 36 37 38 39 40 41 42 43 44 45 46 47 48 49 50

810
ASUS41 KCTP 161903
RWRCTP

REGIONAL WEATHER ROUNDUP
NATIONAL WEATHER SERVICE STATE COLLEGE PA
200 PM EST TUE JAN 16 2018

Note: "fair" indicates few or no clouds below 12,000 feet with no
significant weather and/or obstructions to visibility.

* = STATION THAT DOES NOT REPORT PRECIPITATION /E.G. RAIN...SNOW...ETC/
    THUNDER OR FOG.

PAZ002>004-007>009-013>016-020>023-029>032-162000-
WESTERN PENNSYLVANIA

CITY           SKY/WX    TMP DP  RH WIND       PRES   REMARKS
ERIE           LGT SNOW  14   9  80 W9        30.38R VSB 3/4 WCI   2
MEADVILLE      CLOUDY    19  16  88 W7        30.28F WCI  10
FRANKLIN*      LGT SNOW  25  21  85 SW12      30.27F FOG     WCI  14
NEW CASTLE     LGT SNOW  19  13  77 W9        30.35S WCI   8
BEAVER COUNTY  LGT SNOW  21  18  86 W7        30.32F VSB 3/4 WCI  13
BUTLER*        LGT SNOW  26  20  77 SW10      30.31S
PITTSBURGH INT LGT SNOW  22  18  85 W6        30.31F FOG     WCI  14
PITTSBURGH     LGT SNOW  25  20  81 W9        30.30S
INDIANA*       CLOUDY    28  27  93 CALM      30.32F FOG
LATROBE        LGT SNOW  28  27  93 SW3       30.31F
WASHINGTON CO* LGT SNOW  23  18  81 W9        30.35S WCI  13
$$

PAZ004>006-010>012-017>019-024>028-033>037-041-042-045-046-049>053-162000-
CENTRAL PENNSYLVANIA

CITY           SKY/WX    TMP DP  RH WIND       PRES   REMARKS
BRADFORD       LGT SNOW  25  20  81 SW6       30.23F
DUBOIS         LGT SNOW  26  21  81 SW7       30.25F VSB 3/4
CLEARFIELD     LGT SNOW  28  25  88 CALM      30.29F VSB 1
JOHNSTOWN      LGT SNOW  26  23  88 W3        30.22F FOG
ALTOONA        LGT SNOW  26  22  84 CALM      30.29F FOG
STATE COLLEGE  LGT SNOW  25  23  93 CALM      30.32F VSB 1
WILLIAMSPORT   LGT SNOW  28  26  92 NE5       30.37S VSB 3/4
SELINSGROVE    SNOW      29  28  96 CALM      30.38F VSB 1/2
FT INDIANTOWN  LGT SNOW  31  31 100 CALM      30.38F FOG
CAPITAL CITY   LGT SNOW  33  27  78 S3        30.39S
HARRISBURG     LGT SNOW  33  30  88 CALM      30.38F VSB 1
YORK           CLOUDY    32  28  85 CALM      30.37F
$$

PAZ038>040-043-044-047-048-054-055-060>062-067>071-162000-
EASTERN PENNSYLVANIA

CITY           SKY/WX    TMP DP  RH WIND       PRES   REMARKS
SCRANTON       LGT SNOW  29  26  89 CALM      30.34F VSB 1
MOUNT POCONO   FLURRIES  27  25  92 S6        30.29F
ALLENTOWN      CLOUDY    31  25  78 NE3       30.40F
QUAKERTOWN*    MOCLDY    36  28  75 CALM      30.39F
READING        CLOUDY    32  30  92 N3        30.38F
LANCASTER      CLOUDY    33  30  88 CALM      30.38F FOG
COATESVILLE    MOCLDY    39  32  75 VRB6      30.37F
POTTSTOWN      NOT AVBL
BLUE BELL      CLOUDY    37  30  75 CALM      30.41F
DOYLESTOWN     CLOUDY    37  28  70 VRB5      30.38F
WILLOW GROVE   NOT AVBL
NORTH PHILA    CLOUDY    44  29  55 E5        30.42F
PHILADELPHIA   PTSUNNY   43  29  57 CALM      30.40F
$$




USA.gov is the U.S. government's official web portal to all federal, state and local government web resources and services.